This is the latest recevied weather packets stored in our database for station/object K7FED. If no packets are shown the sender has not sent any weather packets the latest 10 day(s).
| Time | Temp. | Humidity | Pressure | Rain* | Wind** | Luminosity | Snow |
|---|---|---|---|---|---|---|---|
| 1777481327 | 19.44° C | 54% | 1016.6 hPa | 0 mm | - | 39 W/m² | - |
| 1777481027 | 19.44° C | 55% | 1016.6 hPa | 0 mm | - | 39 W/m² | - |
| 1777480727 | 18.89° C | 55% | 1016.7 hPa | 0 mm | - | 41 W/m² | - |
| 1777480427 | 18.89° C | 55% | 1016.7 hPa | 0 mm | - | 61 W/m² | - |
| 1777480127 | 18.33° C | 57% | 1016.6 hPa | 0 mm | - | 37 W/m² | - |
| 1777479827 | 18.33° C | 56% | 1016.7 hPa | 0 mm | - | 36 W/m² | - |
| 1777479527 | 17.78° C | 58% | 1016.8 hPa | 0 mm | - | 36 W/m² | - |
| 1777479227 | 17.78° C | 59% | 1016.8 hPa | 0 mm | - | 35 W/m² | - |
| 1777478927 | 17.22° C | 59% | 1016.8 hPa | 0 mm | - | 35 W/m² | - |
| 1777478628 | 17.22° C | 61% | 1016.8 hPa | 0 mm | - | 36 W/m² | - |
| 1777478327 | 16.67° C | 61% | 1016.8 hPa | 0 mm | - | 34 W/m² | - |
| 1777478027 | 16.67° C | 63% | 1016.8 hPa | 0 mm | - | 33 W/m² | - |
| 1777477727 | 16.67° C | 63% | 1016.9 hPa | 0 mm | - | 33 W/m² | - |
| 1777477425 | 16.11° C | 61% | 1016.9 hPa | 0 mm | - | 54 W/m² | - |
| 1777477124 | 16.11° C | 62% | 1016.8 hPa | 0 mm | - | 31 W/m² | - |
| 1777476823 | 15.56° C | 62% | 1016.8 hPa | 0 mm | - | 85 W/m² | - |
| 1777476522 | 15.56° C | 64% | 1016.8 hPa | 0 mm | - | 30 W/m² | - |
| 1777476222 | 15° C | 65% | 1016.8 hPa | 0 mm | - | 31 W/m² | - |
| 1777475923 | 15° C | 67% | 1016.9 hPa | 0 mm | - | 40 W/m² | - |
| 1777475622 | 14.44° C | 68% | 1016.8 hPa | 0 mm | - | 28 W/m² | - |
| 1777475322 | 14.44° C | 69% | 1016.8 hPa | 0 mm | - | 27 W/m² | - |
| 1777475019 | 14.44° C | 71% | 1016.8 hPa | 0 mm | - | 79 W/m² | - |
| 1777474719 | 13.89° C | 71% | 1016.9 hPa | 0 mm | - | 26 W/m² | - |
| 1777474419 | 13.89° C | 71% | 1016.9 hPa | 0 mm | - | 25 W/m² | - |
| 1777474119 | 13.89° C | 72% | 1016.9 hPa | 0 mm | - | 24 W/m² | - |
* Rain latest hour (hover to see other rain measurements)
** Current wind speed in m/s (hover to see current wind gust speed)